Theta_e
314 314 314 312 310 310 311 312 311 311 310 309 310 309 309 308 308 310 311 311 323 320 322 325 326 326 325 325 325 324 324 323 324 324 324 324 325 325 325 325 325 324 324
316 315 313 311 310 310 311 310 310 310 310 309 309 310 310 310 309 309 310 312 319 322 321 324 326 326 326 326 325 324 323 322 322 323 322 323 323 324 324 324 324 323 323
316 315 313 310 311 310 309 309 309 309 309 310 310 311 312 312 312 311 310 312 314 323 322 322 325 326 326 327 325 324 323 322 322 322 322 322 322 323 323 323 322 323 322
317 316 314 312 312 310 309 309 310 310 309 310 311 312 312 312 311 311 310 311 313 315 321 323 324 326 326 326 326 325 323 323 322 322 322 322 322 322 322 321 322 322 322
317 316 315 314 311 310 309 309 309 310 309 310 310 311 312 312 312 310 311 311 313 315 317 318 322 325 325 326 326 325 324 323 322 322 322 322 322 322 321 321 321 320 320
317 315 314 312 311 310 310 309 309 309 309 309 308 309 312 313 313 311 311 311 312 314 315 315 318 321 322 324 325 326 324 324 323 323 322 322 322 322 322 321 320 320 319
316 314 313 311 310 309 310 309 309 309 310 310 309 311 311 311 311 310 311 311 311 312 313 313 314 317 318 321 324 324 325 325 324 323 323 323 322 322 322 321 321 320 320
315 313 312 311 310 309 309 309 309 309 310 310 309 309 308 310 310 309 309 309 310 311 311 311 313 315 316 316 321 322 326 325 325 324 323 323 323 323 323 322 321 321 320
314 313 312 312 311 310 310 310 309 309 309 310 309 309 308 308 308 309 308 308 309 309 311 311 311 313 314 314 316 320 323 323 324 324 324 324 324 324 323 323 322 321 321
314 313 313 312 311 311 310 311 309 309 308 308 309 308 309 309 308 308 311 309 308 308 310 311 310 311 313 314 314 317 319 323 323 322 322 324 324 324 324 323 322 322 321
314 314 313 313 312 311 311 311 310 308 309 309 309 309 308 308 307 306 305 311 311 310 310 310 311 311 312 313 313 314 318 321 322 321 321 323 324 324 324 324 323 322 322
315 315 314 314 314 313 312 312 311 310 310 309 309 309 309 308 307 306 305 307 307 311 312 311 310 311 312 312 312 313 315 320 322 322 321 321 323 324 324 324 323 323 322
314 315 315 314 314 314 313 313 312 311 310 309 309 309 309 309 310 308 307 307 306 309 310 312 312 311 310 312 312 312 315 318 321 322 322 320 321 322 322 323 323 322 322
314 315 314 315 314 314 313 313 312 312 311 310 310 309 310 310 310 309 308 307 305 306 308 310 314 312 312 311 313 313 314 317 321 321 321 321 321 321 320 321 321 321 321
312 313 314 313 314 314 313 313 311 311 311 311 310 310 309 311 310 310 309 309 307 304 306 310 311 312 311 311 311 311 313 314 319 320 320 320 321 321 320 320 320 320 319
310 312 312 313 313 313 313 312 312 312 311 311 310 310 310 310 310 310 310 309 309 308 305 310 311 311 311 309 311 310 312 313 316 319 319 318 319 321 321 321 321 320 319
305 307 310 311 312 312 313 312 312 312 310 311 310 310 309 310 310 310 310 310 308 309 306 310 312 313 311 312 311 311 312 311 313 316 319 318 317 318 319 320 320 319 319
303 303 305 306 308 311 312 312 311 311 310 310 310 309 309 309 309 310 309 308 309 309 308 307 310 311 310 313 313 312 310 310 312 313 316 319 318 317 317 317 318 318 317
301 302 302 303 304 306 309 311 311 311 311 311 311 310 310 310 309 309 308 308 309 308 308 308 308 312 311 311 310 310 310 311 310 311 314 315 317 317 316 316 316 315 315
300 300 301 301 302 303 306 307 309 310 311 311 311 311 311 310 309 310 309 308 308 308 308 307 307 309 309 309 308 308 308 308 309 309 310 312 314 316 317 316 315 314 313
299 299 299 300 301 302 302 305 307 307 308 309 311 311 311 312 312 312 310 309 309 308 308 307 306 307 308 305 305 309 307 310 312 311 311 311 311 312 314 317 315 313 312
298 298 299 299 300 300 304 307 307 306 307 307 308 310 311 311 312 313 314 313 311 308 308 307 307 306 307 309 309 308 308 307 306 312 308 309 310 310 312 314 314 313 312
297 297 298 299 299 300 303 305 307 306 305 305 306 307 309 310 311 311 312 314 314 314 312 311 308 308 308 310 310 308 307 307 307 311 307 307 311 308 311 310 311 311 312
295 295 296 297 298 299 302 304 306 305 304 304 305 305 306 308 310 310 310 309 310 311 314 314 312 312 312 312 311 310 310 309 310 310 307 304 311 308 309 310 309 309 310
293 294 296 297 297 298 301 303 304 303 302 303 304 304 304 305 308 310 309 309 309 309 311 311 312 313 313 312 311 310 307 306 304 306 305 305 308 304 303 305 307 306 307
293 294 295 296 297 297 300 301 303 302 301 301 302 302 304 305 307 308 307 306 305 307 309 310 310 310 312 313 313 312 309 306 305 306 307 303 306 303 303 301 302 304 306
Wind_Speed
3 2 2 2 2 1 2 2 2 2 3 3 3 3 4 4 4 3 2 7 9 7 7 7 7 6 6 5 4 3 3 2 2 2 2 3 4 5 5 5 6 5 5
4 3 2 3 2 2 2 2 2 2 3 3 4 4 4 4 4 4 4 4 8 8 8 8 8 8 7 6 5 4 3 2 2 1 2 2 3 4 5 5 5 5 6
5 5 3 3 2 2 4 3 3 2 3 3 5 4 3 4 4 6 4 4 4 7 8 9 9 9 8 7 6 5 4 4 3 2 1 2 3 4 4 4 4 6 4
7 5 4 4 2 2 3 3 2 2 3 3 4 4 4 4 5 5 5 5 4 4 5 8 9 9 8 8 7 6 6 5 4 3 3 3 3 3 2 2 3 3 5
8 6 5 4 3 3 3 2 2 2 3 3 4 4 4 4 4 4 6 6 6 5 4 6 7 8 8 9 8 8 7 6 6 5 5 4 3 3 2 2 2 2 2
8 6 5 5 4 3 3 3 4 2 3 4 5 6 6 5 4 5 5 5 5 6 5 6 5 5 6 9 10 9 8 8 7 7 6 5 5 4 4 3 3 1 1
8 8 5 5 5 5 5 4 3 4 3 2 3 4 4 5 6 5 4 5 6 6 6 6 5 4 4 7 10 10 10 10 9 8 7 7 7 6 5 5 4 3 3
8 8 7 6 7 5 6 5 5 2 2 2 2 2 3 2 3 4 4 5 7 5 6 7 7 7 5 5 6 8 8 10 10 9 9 9 9 8 8 7 6 5 4
9 10 9 8 7 6 6 6 6 7 4 2 5 3 2 2 3 1 5 5 6 5 5 7 8 8 7 6 7 8 9 9 11 10 10 10 10 10 10 9 8 7 6
9 10 10 9 9 7 8 7 6 7 5 6 2 4 4 2 2 3 2 3 5 7 8 6 8 9 9 7 9 9 9 10 11 12 12 12 12 12 11 11 10 9 8
9 10 10 10 10 7 9 9 8 9 7 5 5 3 3 3 4 5 4 1 2 6 8 9 8 9 10 9 8 10 15 14 13 14 14 14 14 14 13 13 12 11 10
5 8 9 9 9 9 10 9 10 10 9 8 6 6 6 4 3 5 6 5 5 4 4 7 9 9 9 9 11 13 17 16 16 16 15 16 16 16 15 15 14 13 13
5 7 7 8 9 10 11 9 9 10 10 9 11 8 7 8 6 4 4 5 4 2 3 6 8 9 9 10 11 16 17 18 18 19 18 17 17 18 17 17 16 15 15
7 7 7 8 10 10 10 9 8 9 9 10 13 11 8 8 8 8 7 5 6 4 4 7 4 7 8 10 11 16 12 20 20 20 20 18 17 18 19 18 18 17 16
6 8 7 8 9 9 9 9 8 10 10 10 11 11 10 9 9 9 9 9 8 6 6 4 4 4 5 6 10 12 13 15 21 21 21 20 19 20 21 20 20 19 18
7 6 6 7 8 8 9 9 8 9 10 9 8 11 11 9 10 9 10 10 10 10 10 5 5 4 3 4 7 11 13 13 19 22 22 21 21 21 21 21 20 19 19
10 9 7 6 6 7 7 7 10 10 11 10 10 12 13 12 9 9 9 9 10 10 12 11 9 9 7 9 6 9 10 12 11 22 23 23 23 23 23 22 22 21 20
10 10 9 8 7 7 6 7 9 8 10 11 12 12 13 9 12 12 9 13 12 12 10 18 11 10 11 11 11 10 9 10 12 16 23 24 24 24 24 24 23 23 22
10 10 10 10 9 9 8 6 8 8 9 11 11 11 13 11 13 11 12 11 11 10 12 12 12 8 8 8 9 9 9 11 10 17 18 23 25 25 25 25 25 25 24
10 11 10 9 9 9 8 8 8 8 9 10 11 12 13 13 14 14 12 14 12 11 12 11 11 11 9 7 7 9 10 9 11 10 15 18 20 26 27 27 27 28 25
10 10 10 11 10 9 8 11 10 9 8 10 10 11 13 15 18 17 10 12 13 12 11 11 11 11 10 8 9 6 10 10 10 10 10 11 12 14 16 26 26 29 28
11 11 11 11 11 8 15 14 12 10 10 9 10 10 11 14 17 22 23 24 16 14 14 11 11 13 15 12 9 9 9 8 8 9 12 14 11 13 13 15 25 30 29
12 13 12 12 12 12 16 18 16 10 9 9 10 10 10 8 12 13 17 21 24 26 24 16 15 15 15 13 13 12 12 12 14 7 7 9 9 13 12 13 22 22 26
13 13 13 12 12 10 18 18 17 10 9 10 10 11 11 12 11 12 13 14 15 15 16 15 19 18 16 14 14 14 14 14 12 9 8 13 8 10 10 11 18 23 26
12 12 12 13 13 13 19 19 16 11 10 11 10 11 11 12 14 15 12 14 15 13 13 21 24 24 23 22 17 10 11 10 12 10 9 12 9 7 6 10 10 23 28
12 10 12 13 15 14 18 20 17 10 11 10 11 11 11 12 18 19 14 13 13 13 13 14 13 16 20 20 24 18 13 14 12 9 8 9 9 5 6 5 10 11 12
Wind_Direction
218 224 261 245 264 280 282 275 289 289 276 257 248 233 213 216 219 224 231 245 245 230 228 217 214 218 218 216 210 201 190 191 159 117 89 77 70 70 64 59 53 50 54
212 222 242 237 252 244 254 260 264 268 270 268 257 235 233 219 217 225 223 226 238 234 229 226 220 223 223 224 222 223 216 216 183 130 99 84 73 71 69 66 64 65 61
214 221 235 241 258 235 242 231 231 245 263 266 264 254 239 229 228 222 218 220 219 237 234 233 227 226 229 231 226 226 221 222 210 182 132 94 82 82 80 78 74 68 72
215 218 230 239 232 220 239 233 236 258 267 266 271 251 244 235 229 223 212 215 213 222 222 231 230 228 231 234 233 226 224 224 212 190 167 142 135 115 105 82 79 59 59
216 222 229 229 222 223 224 231 223 249 284 272 272 266 248 240 232 220 211 208 209 210 216 220 231 236 239 238 236 231 224 223 211 194 182 173 175 170 156 124 113 104 58
219 220 226 227 217 225 228 217 237 213 265 282 280 270 252 238 227 227 216 208 206 210 212 222 209 213 241 241 242 235 222 216 209 197 192 198 199 204 198 178 176 164 131
220 219 223 217 210 222 228 214 216 242 253 248 281 260 243 238 229 225 219 216 208 207 208 213 213 209 211 237 251 237 226 216 208 204 206 212 213 217 216 204 199 202 206
224 223 223 219 211 216 217 210 204 197 244 224 278 276 300 182 209 225 221 222 219 206 215 213 216 212 205 213 231 255 245 225 214 213 216 221 219 219 220 219 215 211 215
222 220 224 223 218 214 222 210 207 211 235 195 224 280 276 322 320 176 222 228 230 225 230 224 222 221 211 209 220 230 239 237 228 224 222 226 227 226 224 225 224 221 222
234 224 225 221 222 216 223 221 210 217 208 231 201 221 234 293 327 318 188 224 228 237 235 230 229 225 222 216 214 225 223 224 228 231 232 231 231 231 229 230 229 227 226
227 234 234 231 229 223 232 228 217 214 214 233 213 186 197 220 240 249 285 292 240 226 233 231 225 225 221 220 215 219 220 222 218 226 233 235 235 235 233 233 233 231 231
254 239 230 234 243 240 233 229 227 225 218 223 229 225 220 214 189 211 242 268 276 272 247 231 229 227 222 219 218 211 214 217 216 218 226 233 236 237 237 237 236 236 235
255 253 235 240 241 239 239 237 230 227 223 222 224 227 229 234 230 222 237 263 270 284 275 236 227 225 224 222 222 209 212 215 214 215 219 225 231 235 238 240 240 240 239
279 275 251 241 241 239 240 235 233 235 229 228 230 224 230 232 223 224 231 234 262 249 252 248 217 220 223 223 222 205 219 215 214 214 217 220 224 230 235 238 240 241 240
294 283 267 257 254 246 238 229 231 235 230 233 237 235 232 233 228 225 229 229 236 265 271 214 249 211 225 223 228 221 225 218 217 215 216 219 220 224 231 235 239 240 240
355 320 298 277 268 260 249 232 235 238 231 232 231 233 235 235 234 228 224 224 225 236 257 225 227 239 215 217 222 227 231 225 221 220 218 217 220 222 226 230 233 236 237
11 11 354 322 294 280 269 251 243 242 236 243 236 232 238 234 233 230 228 229 227 223 242 257 252 248 249 251 230 221 228 228 231 224 224 219 220 222 224 226 228 228 231
6 7 6 5 353 324 292 265 266 259 249 249 246 240 244 237 234 233 229 231 227 225 232 255 246 239 236 235 246 232 227 228 231 225 225 226 222 221 223 225 225 225 224
1 2 4 4 360 352 340 310 281 274 260 258 256 249 249 243 241 236 230 231 230 233 233 248 262 246 246 231 234 236 238 239 235 238 228 230 229 224 224 225 224 225 221
357 357 357 353 355 347 351 351 333 306 284 271 264 254 252 245 241 241 234 235 236 234 231 236 251 260 251 235 239 248 242 231 240 231 231 234 230 229 228 227 225 225 218
349 348 349 352 350 349 349 344 339 327 310 293 276 264 255 251 244 241 236 236 231 231 233 235 241 249 246 227 227 230 247 253 243 233 233 230 224 225 229 233 233 226 217
347 343 345 343 342 342 331 328 333 330 324 312 302 291 273 261 252 245 242 241 234 233 236 235 239 238 243 240 233 235 240 246 260 194 228 242 221 230 227 226 227 227 217
337 338 335 335 333 331 329 331 329 326 324 321 316 312 303 285 268 265 258 252 247 240 237 245 246 245 246 236 227 231 229 231 243 232 213 252 230 239 236 238 236 230 222
327 323 318 317 316 316 320 324 325 318 317 320 319 317 313 308 300 285 278 271 263 257 248 241 244 250 247 247 238 238 244 249 255 247 215 257 229 242 236 234 225 221 222
324 322 317 316 315 314 313 317 320 319 311 315 315 314 314 314 310 302 298 286 278 271 259 254 255 256 253 247 237 242 242 245 254 246 206 255 246 256 241 244 231 219 220
319 321 320 321 314 314 314 316 321 317 309 315 314 312 305 306 312 310 309 304 295 289 285 275 264 258 254 250 241 232 240 243 243 268 186 217 239 198 260 209 230 226 227